Weather History for Big Bear City, CA

Change the Weather History Date:

Tuesday, June 10, 2014

  Actual Average (KBUO) Record (KBUO)
Temperature  
Mean Temperature 58 °F -  
Max Temperature 75 °F 78 °F 89 °F (2001)
Min Temperature 42 °F 52 °F 51 °F (1999)
Degree Days  
Heating Degree Days 6    
Growing Degree Days 8 (Base 50)    
Moisture  
Dew Point 32 °F    
Average Humidity 41    
Maximum Humidity 66    
Minimum Humidity 6    
Precipitation  
Precipitation 0.00 in - - ()
Sea Level Pressure  
Sea Level Pressure 30.09 in    
Wind  
Wind Speed 5 mph (WSW)    
Max Wind Speed 18 mph    
Max Gust Speed 26 mph    
Visibility 10 miles    
Events      
Averages and records for this station are not official NWS values.
T = Trace of Precipitation, MM = Missing Value Source: NWS Daily Summary

Daily Weather History Graph

Daily Weather History Graph

Search for Another Location

Airport:

Trip Planner

Search our weather history database for the weather conditions in past years. The results will help you decide how hot, cold, wet, or windy it might be!

Date:

Astronomy

Jun. 10, 2014 Rise Set
Actual Time 5:34 AM PDT 7:59 PM PDT
Civil Twilight 5:05 AM PDT 8:28 PM PDT
Nautical Twilight 4:29 AM PDT 9:04 PM PDT
Astronomical Twilight 3:50 AM PDT 9:43 PM PDT
Moon 5:34 PM PDT (6/10) 3:36 AM PDT (6/10)
Length of Visible Light 15h 22m
Length of Day
14h 24m
Waxing Gibbous, 93% of the Moon is Illuminated
Jun 10
Waxing Gibbous
Jun 12
Full
Jun 19
Last Quarter
Jun 27
New
Jul 5
First Quarter

Hourly Weather History & Observations

Time (PDT) Temp. Windchill Dew Point Humidity Pressure Visibility Wind Dir Wind Speed Gust Speed Precip Events Conditions
12:15 AM 51.8 °F - 39.2 °F 62% 30.14 in 10.0 mi Calm Calm - N/A   Clear
12:35 AM 51.8 °F - 37.4 °F 58% 30.14 in 10.0 mi Calm Calm - N/A   Clear
12:55 AM 50.0 °F - 37.4 °F 62% 30.14 in 10.0 mi Calm Calm - N/A   Clear
1:15 AM 50.0 °F - 37.4 °F 62% 30.13 in 10.0 mi Calm Calm - N/A   Clear
1:35 AM 50.0 °F - 35.6 °F 58% 30.13 in 10.0 mi Calm Calm - N/A   Clear
2:15 AM 48.2 °F - 33.8 °F 58% 30.12 in 10.0 mi Calm Calm - N/A   Clear
2:35 AM 48.2 °F - 33.8 °F 58% 30.12 in 10.0 mi Calm Calm - N/A   Clear
2:55 AM 46.4 °F - 33.8 °F 62% 30.11 in 10.0 mi Calm Calm - N/A   Clear
3:15 AM 46.4 °F 45.2 °F 33.8 °F 62% 30.11 in 10.0 mi West 3.5 mph - N/A   Clear
3:35 AM 46.4 °F 45.2 °F 32.0 °F 57% 30.10 in 10.0 mi West 3.5 mph - N/A   Clear
3:55 AM 44.6 °F - 32.0 °F 61% 30.11 in 10.0 mi Calm Calm - N/A   Clear
4:15 AM 44.6 °F - 32.0 °F 61% 30.10 in 10.0 mi Calm Calm - N/A   Clear
4:35 AM 44.6 °F - 32.0 °F 61% 30.10 in 10.0 mi Calm Calm - N/A   Clear
4:55 AM 44.6 °F - 32.0 °F 61% 30.10 in 10.0 mi Calm Calm - N/A   Clear
5:15 AM 42.8 °F - 32.0 °F 66% 30.10 in 10.0 mi Calm Calm - N/A   Clear
5:35 AM 42.8 °F - 32.0 °F 66% 30.10 in 10.0 mi Calm Calm - N/A   Clear
5:55 AM 42.8 °F 41.1 °F 32.0 °F 66% 30.10 in 10.0 mi WSW 3.5 mph - N/A   Clear
6:15 AM 44.6 °F - 33.8 °F 66% 30.11 in 10.0 mi Calm Calm - N/A   Clear
6:35 AM 46.4 °F - 33.8 °F 62% 30.10 in 10.0 mi Calm Calm - N/A   Clear
6:55 AM 50.0 °F - 37.4 °F 62% 30.09 in 10.0 mi West 3.5 mph - N/A   Clear
7:15 AM 53.6 °F - 39.2 °F 58% 30.09 in 10.0 mi West 5.8 mph - N/A   Clear
7:35 AM 55.4 °F - 37.4 °F 51% 30.09 in 10.0 mi West 5.8 mph - N/A   Clear
7:55 AM 60.8 °F - 37.4 °F 42% 30.09 in 10.0 mi Calm Calm - N/A   Clear
8:15 AM 68.0 °F - 32.0 °F 26% 30.09 in 10.0 mi East 4.6 mph - N/A   Clear
8:35 AM 71.6 °F - 17.6 °F 13% 30.09 in 10.0 mi East 9.2 mph 19.6 mph N/A   Clear
8:55 AM 71.6 °F - 10.4 °F 9% 30.09 in 10.0 mi SE 10.4 mph 18.4 mph N/A   Clear
9:15 AM 73.4 °F - 5.0 °F 7% 30.09 in 10.0 mi SSE 6.9 mph - N/A   Clear
9:35 AM 73.4 °F - 3.2 °F 6% 30.09 in 10.0 mi SSE 8.1 mph 17.3 mph N/A   Clear
9:55 AM 73.4 °F - 8.6 °F 8% 30.09 in 10.0 mi SE 10.4 mph - N/A   Clear
10:15 AM 73.4 °F - 3.2 °F 6% 30.09 in 10.0 mi SSE 5.8 mph - N/A   Clear
10:55 AM 73.4 °F - 8.6 °F 8% 30.09 in 10.0 mi West 6.9 mph - N/A   Clear
11:15 AM 75.2 °F - 8.6 °F 8% 30.08 in 10.0 mi South 5.8 mph - N/A   Clear
11:35 AM 75.2 °F - 14.0 °F 10% 30.08 in 10.0 mi SSE 8.1 mph - N/A   Clear
12:15 PM 75.2 °F - 35.6 °F 24% 30.07 in 10.0 mi West 13.8 mph 19.6 mph N/A   Clear
12:35 PM 75.2 °F - 35.6 °F 24% 30.07 in 10.0 mi West 15.0 mph 19.6 mph N/A   Clear
12:55 PM 75.2 °F - 37.4 °F 25% 30.07 in 10.0 mi West 17.3 mph - N/A   Clear
1:55 PM 73.4 °F - 41.0 °F 31% 30.08 in 10.0 mi West 16.1 mph 26.5 mph N/A   Clear
2:15 PM 73.4 °F - 41.0 °F 31% 30.07 in 10.0 mi West 16.1 mph 20.7 mph N/A   Clear
2:55 PM 71.6 °F - 41.0 °F 33% 30.08 in 10.0 mi West 15.0 mph 24.2 mph N/A   Clear
3:15 PM 71.6 °F - 41.0 °F 33% 30.07 in 10.0 mi West 17.3 mph 23.0 mph N/A   Clear
3:35 PM 71.6 °F - 41.0 °F 33% 30.07 in 10.0 mi West 17.3 mph - N/A   Clear
3:55 PM 71.6 °F - 37.4 °F 29% 30.07 in 10.0 mi West 18.4 mph 23.0 mph N/A   Clear
4:15 PM 69.8 °F - 39.2 °F 33% 30.08 in 10.0 mi WSW 12.7 mph 20.7 mph N/A   Clear
4:55 PM 69.8 °F - 37.4 °F 31% 30.07 in 10.0 mi West 17.3 mph - N/A   Clear
5:15 PM 68.0 °F - 37.4 °F 33% 30.07 in 10.0 mi West 15.0 mph 20.7 mph N/A   Clear
5:35 PM 68.0 °F - 39.2 °F 35% 30.07 in 10.0 mi West 12.7 mph 18.4 mph N/A   Clear
5:55 PM 68.0 °F - 37.4 °F 33% 30.07 in 10.0 mi West 13.8 mph 23.0 mph N/A   Clear
6:15 PM 66.2 °F - 35.6 °F 32% 30.07 in 10.0 mi WSW 9.2 mph 17.3 mph N/A   Clear
6:35 PM 64.4 °F - 35.6 °F 34% 30.07 in 10.0 mi West 16.1 mph - N/A   Clear
6:55 PM 64.4 °F - 35.6 °F 34% 30.08 in 10.0 mi West 13.8 mph - N/A   Clear
7:15 PM 62.6 °F - 35.6 °F 37% 30.07 in 10.0 mi West 10.4 mph - N/A   Clear
7:35 PM 60.8 °F - 39.2 °F 45% 30.08 in 10.0 mi West 13.8 mph - N/A   Clear
7:55 PM 59.0 °F - 39.2 °F 48% 30.08 in 10.0 mi West 12.7 mph - N/A   Clear
8:15 PM 57.2 °F - 35.6 °F 44% 30.08 in 10.0 mi West 8.1 mph - N/A   Clear
8:35 PM 57.2 °F - 33.8 °F 41% 30.08 in 10.0 mi West 9.2 mph - N/A   Clear
8:55 PM 57.2 °F - 33.8 °F 41% 30.09 in 10.0 mi West 9.2 mph - N/A   Clear
9:15 PM 55.4 °F - 35.6 °F 47% 30.10 in 10.0 mi WSW 5.8 mph - N/A   Clear
9:35 PM 55.4 °F - 37.4 °F 51% 30.11 in 10.0 mi WSW 6.9 mph - N/A   Clear
9:55 PM 53.6 °F - 37.4 °F 54% 30.12 in 10.0 mi West 5.8 mph - N/A   Clear
10:15 PM 53.6 °F - 35.6 °F 51% 30.12 in 10.0 mi WSW 3.5 mph - N/A   Clear
10:35 PM 53.6 °F - 32.0 °F 44% 30.12 in 10.0 mi Calm Calm - N/A   Clear
10:55 PM 51.8 °F - 30.2 °F 44% 30.12 in 10.0 mi Calm Calm - N/A   Clear
11:15 PM 51.8 °F - 28.4 °F 41% 30.11 in 10.0 mi WSW 4.6 mph - N/A   Clear
11:35 PM 50.0 °F - 26.6 °F 40% 30.11 in 10.0 mi SW 3.5 mph - N/A   Clear
11:55 PM 50.0 °F - 26.6 °F 40% 30.11 in 10.0 mi Calm Calm - N/A   Clear